Weather Roundup
Issued by NWS Chicago, IL

Home | Current Version | Previous Version | Graphics & Text | Print | Product List | Glossary On
Versions: 1 2 3 4 5 6 7 8 9 10 11 12 13 14 15 16 17 18 19 20 21 22 23 24 25 26 27 28 29 30 31 32 33 34 35 36 37 38 39 40 41 42 43 44 45 46 47 48 49 50
000
NZUS59 KLOT 290608
HRRLOT

CHICAGO AREA WEATHER ROUNDUP
NATIONAL WEATHER SERVICE CHICAGO/ROMEOVILLE IL
100 AM CDT FRI APR 29 2016

NOTE: "FAIR" INDICATES FEW OR NO CLOUDS BELOW 12,000 FEET WITH NO
SIGNIFICANT WEATHER AND/OR OBSTRUCTIONS TO VISIBILITY.

* THESE STATIONS ARE NOT UNDER NWS QUALITY CONTROL. THEY ALSO MAY NOT
  REPORT WEATHER SUCH AS PRECIPITATION OR FOG.

ILZ005-006-012>014-019>023-290700-
NORTHEAST ILLINOIS

CITY           SKY/WX    TMP DP  RH WIND       PRES   REMARKS
OHARE          CLOUDY    42  42 100 N7        30.01R FOG
6HR MIN TEMP:  42; 6HR MAX TEMP:  44; 6HR PCP:  0.01;

MIDWAY         CLOUDY    45  41  86 N7        30.01R FOG
6HR MIN TEMP:  45; 6HR MAX TEMP:  48; 6HR PCP: TRACE;

AURORA         CLOUDY    44  41  89 N6        30.03R FOG
6HR MIN TEMP:  44; 6HR MAX TEMP:  48; 6HR PCP: TRACE;

LANSING*       CLOUDY    46  42  89 N3        30.01R FOG
JOLIET*        CLOUDY    46  43  88 CALM      30.02S FOG
WAUKEGAN       LGT RAIN  41  41 100 NE5       30.02S
6HR MIN TEMP:  40; 6HR MAX TEMP:  41; 6HR PCP:  0.03;

DUPAGE AIRPORT CLOUDY    43  39  86 N8        30.01S FOG
6HR MIN TEMP:  43; 6HR MAX TEMP:  45; 6HR PCP: TRACE;

WHEELING       CLOUDY    42  41  96 N7        30.02F FOG
6HR MIN TEMP:  42; 6HR MAX TEMP:  42; 6HR PCP: TRACE;

KANKAKEE*      CLOUDY    47  44  88 CALM      30.02R
MORRIS*        CLOUDY    46  42  88 CALM      30.01S FOG
LEWIS AIRPORT* CLOUDY    44  41  88 N5        30.01S FOG
$$

WIZ051-052-058>065-066-070>072-290700-
SOUTHEAST WISCONSIN

CITY           SKY/WX    TMP DP  RH WIND       PRES   REMARKS
MILWAUKEE      DRIZZLE   40  38  93 N8        30.04S FOG
6HR MIN TEMP:  40; 6HR MAX TEMP:  41; 6HR PCP:  0.01;

KENOSHA*       CLOUDY    41  39  93 NE7       30.03S FOG
RACINE*        LGT RAIN  41  38  89 N9        30.04F
BURLINGTON     CLOUDY    39  39  99 NE7       30.02S
WAUKESHA       CLOUDY    36  36 100 NE6       30.05S FOG
WEST BEND      CLOUDY    39  34  81 CALM      30.05S
$$

INZ001>003-010>013-019-020-290700-
NORTHWEST INDIANA

CITY           SKY/WX    TMP DP  RH WIND       PRES   REMARKS
GARY*          CLOUDY    47  47 100 NW5       30.02R FOG
6HR MIN TEMP:  46; 6HR MAX TEMP:  47;

MICHIGAN CITY* NOT AVBL
RENSSELAER*    NOT AVBL
VALPARAISO     CLOUDY    46  45  96 NW3       29.99S FOG
$$

LMZ740>746-290700-
SOUTHERN LAKE MICHIGAN

STATION/POSITION TIME  SKY/WX   TEMP WIND        PRES    VSBY
                                AIR  DIR/SP/G
                 (UTC)          (F)  (DEG/KT/KT) (MB)    (MI)
HARRISON CRIB    0520            43  350/  9/  9   N/A
BURNHAM HARBOR   0600            44  350/  4/  9   N/A
CALUMET HARBOR   0500            44  330/  7/ 11 1015.3F
BURNS HARBOR     0513            44  330/  4/  6 1016.3S
MICHIGAN CITY    0500            45  220/  9/  9   N/A
$$

ABBREVIATIONS USED IN REMARKS
   TC - TEMPERATURE IN CELSIUS
  WCI - WIND CHILL INDEX
   HX - HEAT INDEX
  VSB - VISIBILITY
$$




USA.gov is the U.S. government's official web portal to all federal, state and local government web resources and services.